Terug naar catalogus

STARLINK-11645

ActiefCommunicatieVLEO
NORAD 63316·PAYLOAD·🇺🇸 United States

Gelanceerd Mar 18, 2025 vanaf Cape Canaveral Space Force Station

Loading…

Volgende Passages (komende 24 uur)

TLE

VersSource: CelesTrak SupGP

Epoch: Sep 14, 2026, 22:47 UTC

1 63316C 25057K   26257.94979167  .00033046  00000+0  25654-3 0  2579
2 63316  43.0008 203.9977 0001610 257.7628 343.7018 15.70834322    10

Volg STARLINK-11645 in realtime met AllMySat

Download on the App Store